Current Version              Previous Version:    01  02  03  04  05  06  07  08  09  10  11  12  13  14  15  16  17  18  19  20  21  22  23  24  25  26  27  28  29  30  
   31  32  33  34  35  36  37  38  39  40  41  42  43  44  45  46  47  48  49  50  51  52  53  54  55  56  57  58  59  60  

[Printable]
524
ASUS44 KFWD 201115
RWRTX
NORTH TEXAS HOURLY WEATHER ROUNDUP
NATIONAL WEATHER SERVICE FORT WORTH TX
600 AM CDT MON OCT 20 2014

NOTE: "FAIR" INDICATES FEW OR NO CLOUDS BELOW 12,000 FEET WITH NO
SIGNIFICANT WEATHER AND/OR OBSTRUCTIONS TO VISIBILITY.

TXZ118-119-201200-
DALLAS/FORT WORTH METROPLEX

CITY           SKY/WX    TMP DP  RH WIND       PRES   REMARKS
DFW AIRPORT    MOCLDY    60  54  80 SE3       30.05S
DALLAS LOVE    PTCLDY    59  54  83 E3        30.06R
FTW MEACHAM    PTCLDY    63  56  78 E3        30.05R
DAL-EXECUTIVE  CLEAR     58  54  86 SE3       30.05R
FTW-ALLIANCE   PTCLDY    55  54  96 CALM      30.05S
FTW-NAS-JRB    MOCLDY    65  57  75 CALM      30.10R
FTW-SPINKS     PTCLDY    57  55  94 CALM      30.07R
ARLINGTON      PTCLDY    57  53  86 CALM      30.06R
GRAND PRAIRIE  PTCLDY    61  56  84 CALM      30.07S
ADDISON        MOCLDY    61  52  72 SE5       30.07F
LANCASTER      CLEAR     54  51  89 CALM      30.07R
$$

TXZ091>094-102>105-117-120-121-131>134-201200-
NORTH CENTRAL TEXAS

CITY           SKY/WX    TMP DP  RH WIND       PRES   REMARKS
SHRMAN/DENISON CLEAR     57  53  88 CALM      30.08R
GAINESVILLE    CLEAR     54  52  93 MISG      30.08S
BOWIE          CLEAR     56  55  96 CALM      30.06R
BRIDGEPORT     PTCLDY    55  55 100 CALM      30.07S
DECATUR        CLEAR     59  56  88 CALM      30.06S
DENTON         CLEAR     56  53  90 NE3       30.06R
MCKINNEY       CLEAR     52  51  97 CALM      30.07R
GREENVILLE     CLEAR     52  48  87 CALM      30.07R
ROCKWALL       CLEAR     55  53  91 CALM      30.06R
TERRELL        CLEAR     54  51  90 CALM      30.07R
WAXAHACHIE     CLEAR     56  56  99 CALM      30.07S
CLEBURNE       PTCLDY    61  59  94 CALM      30.07R
GRANBURY       MOCLDY    60  57  89 CALM      30.07R
$$

TXZ083>090-098>101-113>116-127>130-139>142-154-155-201200-
WESTERN NORTH TEXAS

CITY           SKY/WX    TMP DP  RH WIND       PRES   REMARKS
WICHITA FALLS  CLEAR     57  55  93 S7        30.04R
WF-KICKAPOO    CLEAR     58  55  92 S5        30.06R
VERNON         PTCLDY    61  57  88 S6        30.05S
ABILENE        MOCLDY    62  58  86 SE5       30.06R
ABILENE-DYESS  MOCLDY    60  58  91 SE3       30.05R
BRECKENRIDGE   PTCLDY    63  61  94 S5        30.05S FOG
GRAHAM         CLEAR     58  58  97 CALM      30.04S
MINERAL WELLS  MOCLDY    58  56  93 SE5       30.04S FOG
STEPHENVILLE   PTCLDY    58  56  92 CALM      30.09R
COMANCHE       PTCLDY    58  58 100 CALM      30.06S FOG
BROWNWOOD      PTCLDY    57  55  94 CALM      30.06S
COLEMAN        MOCLDY    58  58 100 CALM      30.06S FOG
BRADY          CLEAR     59  57  94 CALM      30.05R
$$

TXZ143>147-156>162-174-175-201200-
CENTRAL TEXAS

CITY           SKY/WX    TMP DP  RH WIND       PRES   REMARKS
WACO           CLEAR     57  55  93 N5        30.06R
WACO-MCGREGOR  CLEAR     57  52  82 CALM      30.07R
HILLSBORO      PTCLDY    59  54  84 CALM      30.06S
CORSICANA      CLEAR     59  54  83 SE3       30.07R
MEXIA          CLEAR     58  55  89 CALM      30.05R
HEARNE         CLEAR     58  56  95 CALM      30.06R
CAMERON        CLEAR     59  58  97 NW3       30.06R
TEMPLE         MOCLDY    57  54  88 CALM      30.05S
KILLEEN        PTCLDY    63  59  88 CALM      30.05S
KILLEEN-SKYLRK MOCLDY    63  55  77 CALM      30.04S
FORT HOOD      PTCLDY    64  60  87 CALM      30.05S
GATESVILLE     PTCLDY    57  57 100 CALM      30.08R
HAMILTON       CLEAR     59  59 100 S5        30.07R FOG
LAMPASAS       PTCLDY    59  58  96 CALM      30.05R FOG
$$

TXZ095>097-106>112-122>126-135>138-148>153-164>167-201200-
EAST TEXAS

CITY           SKY/WX    TMP DP  RH WIND       PRES   REMARKS
PARIS          CLEAR     52  45  76 CALM      30.08R
SULPHUR SPRNGS CLEAR     51  51  98 CALM      30.09R
MOUNT PLEASANT CLEAR     47  47  99 CALM      30.08S
MINEOLA        CLEAR     50  50 100 CALM      30.08R
TYLER          PTCLDY    56  51  84 CALM      30.06R
LONGVIEW       PTCLDY    51  49  92 CALM      30.07R
MARSHALL       CLEAR     53  51  93 CALM      30.09R
ATHENS         PTCLDY    54  52  94 CALM      30.06R
PALESTINE      CLEAR     57  54  89 CALM      30.07R
JACKSONVILLE   CLEAR     58  52  80 CALM      30.08R
HENDERSON      PTCLDY    51  50  99 CALM      30.08R
NACOGDOCHES    CLEAR     48  46  93 CALM      30.07R
LUFKIN         CLEAR     56  52  86 CALM      30.06R
$$

SUPPLEMENTAL OBSERVATIONS (CENTRAL)

CITY           SKY/WX    TMP DP  RH WIND       PRES   REMARKS
LAKE TEXOMA      N/A     55  52  88 CALM        N/A
PAT MAYSE LAKE   N/A     48  46  93 N2          N/A
GREENVILLE       N/A     52  46  82 N1          N/A
CEDAR HILL       N/A     61  55  82 S2          N/A
PALESTINE        N/A     54  52  94 N1          N/A
LAKE LIMESTONE   N/A     55  52  88 CALM        N/A
MCGREGOR         N/A     57  54  88 CALM        N/A
TEMPLE           N/A     63  59  88 E2          N/A
$$

SUPPLEMENTAL OBSERVATIONS (WEST)

CITY           SKY/WX    TMP DP  RH WIND       PRES   REMARKS
POSSUM KINGDOM   N/A     63  59  88 S5          N/A
GRANBURY         N/A     59  54  82 N1          N/A
COMANCHE         N/A     57  55  94 E3          N/A
HAMBY            N/A     61  55  82 SE2         N/A
IVIE RESERVOIR   N/A     59  55  88 E2          N/A
COLORADO BEND    N/A     59  57  94 E1          N/A
$$

SUPPLEMENTAL OBSERVATIONS (EAST)

CITY           SKY/WX    TMP DP  RH WIND       PRES   REMARKS
CLARKSVILLE      N/A     48  45  87 CALM        N/A
TEXARKANA        N/A     43  41  93 CALM        N/A
LINDEN           N/A     48  46  93 CALM        N/A
CADDO LAKE       N/A     43  41  93 CALM        N/A
GILMER           N/A     50  46  87 CALM        N/A
HENDERSON        N/A     52  48  87 N1          N/A
LUFKIN           N/A     52  50  93 MISG        N/A
N SABINE NF      N/A     48  45  87 MISG        N/A
$$

SUPPLEMENTAL OBSERVATIONS ARE A COLLECTION OF AUTOMATED INSTRUMENTS
THAT ARE MAINTAINED BY A VARIETY OF FEDERAL AND STATE AGENCIES.
CERTAIN ELEMENTS...SUCH AS HUMIDITY VALUES AND SUSTAINED WIND
SPEEDS...MAY BE APPROXIMATED.